| time (UTC) | temp F | wind direction | speed MPH | gust MPH | rain 1hr in | rain 24hr in | rain mn in | humidity % | barometer mb |
| 20260504044532 | 57 | 197 | 0.0 | 1.0 | 0.00 | 0.00 | 0.00 | 77 | 1009.3 |
| 20260504043039 | 58 | 197 | 0.0 | 0.0 | 0.00 | 0.00 | 0.00 | 76 | 1009.3 |
| 20260504041531 | 58 | 197 | 0.0 | 0.0 | 0.00 | 0.00 | 0.00 | 75 | 1009.4 |
| 20260504040031 | 59 | 197 | 0.0 | 1.0 | 0.00 | 0.00 | 0.00 | 75 | 1009.3 |
| 20260504034530 | 59 | 197 | 0.0 | 0.0 | 0.00 | 0.00 | 0.00 | 72 | 1009.2 |
| 20260504033030 | 60 | 197 | 0.0 | 0.0 | 0.00 | 0.00 | 0.00 | 70 | 1009.3 |
| 20260504031533 | 61 | 197 | 0.0 | 1.0 | 0.00 | 0.00 | 0.00 | 70 | 1009.3 |
| 20260504030028 | 62 | 186 | 0.0 | 0.0 | 0.00 | 0.00 | 0.00 | 71 | 1009.4 |
| 20260504024533 | 63 | 173 | 0.0 | 1.0 | 0.00 | 0.00 | 0.00 | 69 | 1009.3 |
| 20260504023027 | 64 | 173 | 0.0 | 1.0 | 0.00 | 0.00 | 0.00 | 70 | 1009.3 |
| 20260504021526 | 65 | 173 | 0.0 | 1.0 | 0.00 | 0.00 | 0.00 | 67 | 1009.4 |
| 20260504020024 | 65 | 173 | 0.0 | 2.0 | 0.00 | 0.00 | 0.00 | 66 | 1009.6 |
| 20260504014533 | 66 | 173 | 0.0 | 3.0 | 0.00 | 0.00 | 0.00 | 62 | 1009.6 |
| 20260504013033 | 67 | 189 | 1.0 | 5.0 | 0.00 | 0.00 | 0.00 | 60 | 1009.8 |
| 20260504011522 | 67 | 172 | 2.0 | 4.0 | 0.00 | 0.00 | 0.00 | 61 | 1009.9 |
| 20260504010020 | 68 | 223 | 0.0 | 4.0 | 0.00 | 0.00 | 0.00 | 62 | 1010.1 |
| 20260504004518 | 69 | 159 | 0.0 | 3.0 | 0.00 | 0.00 | 0.00 | 62 | 1010.2 |
| 20260504003017 | 70 | 180 | 1.0 | 7.0 | 0.00 | 0.00 | 0.00 | 61 | 1010.5 |
| 20260504001515 | 73 | 179 | 3.0 | 6.0 | 0.00 | 0.00 | 0.00 | 57 | 1010.4 |
| 20260504000013 | 77 | 341 | 0.0 | 5.0 | 0.00 | 0.00 | 0.00 | 46 | 1010.6 |
| 20260503234512 | 77 | 298 | 2.0 | 8.0 | 0.00 | 0.00 | 0.00 | 47 | 1010.8 |
| 20260503233018 | 78 | 158 | 2.0 | 4.0 | 0.00 | 0.00 | 0.00 | 47 | 1010.9 |
| 20260503231510 | 76 | 215 | 1.0 | 4.0 | 0.00 | 0.00 | 0.00 | 52 | 1010.9 |
| 20260503230006 | 78 | 257 | 1.0 | 6.0 | 0.00 | 0.00 | 0.00 | 49 | 1011.2 |
| 20260503224505 | 76 | 30 | 3.0 | 5.0 | 0.00 | 0.00 | 0.00 | 47 | 1011.4 |
| 20260503223003 | 77 | 288 | 1.0 | 5.0 | 0.00 | 0.00 | 0.00 | 45 | 1011.5 |
| 20260503221501 | 77 | 22 | 0.0 | 5.0 | 0.00 | 0.00 | 0.00 | 44 | 1011.7 |
| 20260503220059 | 76 | 292 | 0.0 | 3.0 | 0.00 | 0.00 | 0.00 | 45 | 1011.9 |
| 20260503214601 | 76 | 26 | 1.0 | 5.0 | 0.00 | 0.00 | 0.00 | 48 | 1012.0 |
| 20260503213057 | 76 | 305 | 1.0 | 8.0 | 0.00 | 0.00 | 0.00 | 42 | 1012.1 |
| 20260503211556 | 77 | 360 | 3.0 | 8.0 | 0.00 | 0.00 | 0.00 | 42 | 1012.1 |
| 20260503210054 | 76 | 190 | 1.0 | 5.0 | 0.00 | 0.00 | 0.00 | 45 | 1012.2 |
| 20260503204552 | 77 | 343 | 2.0 | 8.0 | 0.00 | 0.00 | 0.00 | 45 | 1012.5 |
| 20260503203104 | 74 | 24 | 2.0 | 5.0 | 0.00 | 0.00 | 0.00 | 41 | 1012.9 |
| 20260503201546 | 74 | 345 | 2.0 | 10.0 | 0.00 | 0.00 | 0.00 | 46 | 1013.0 |
| 20260503200043 | 73 | 227 | 3.0 | 8.0 | 0.00 | 0.00 | 0.00 | 48 | 1013.3 |
| 20260503194544 | 72 | 5 | 2.0 | 6.0 | 0.00 | 0.00 | 0.00 | 56 | 1013.3 |
| 20260503193041 | 72 | 26 | 4.0 | 10.0 | 0.00 | 0.00 | 0.00 | 54 | 1013.4 |
| 20260503191546 | 71 | 206 | 2.0 | 9.0 | 0.00 | 0.00 | 0.00 | 56 | 1013.5 |
| 20260503190042 | 73 | 15 | 1.0 | 5.0 | 0.00 | 0.00 | 0.00 | 58 | 1013.4 |
| 20260503184534 | 73 | 74 | 1.0 | 5.0 | 0.00 | 0.00 | 0.00 | 55 | 1013.5 |
| 20260503183032 | 71 | 323 | 0.0 | 5.0 | 0.00 | 0.00 | 0.00 | 60 | 1013.6 |
| 20260503181527 | 70 | 21 | 1.0 | 4.0 | 0.00 | 0.00 | 0.00 | 63 | 1013.8 |
| 20260503180023 | 70 | 181 | 0.0 | 5.0 | 0.00 | 0.00 | 0.00 | 63 | 1014.1 |
| 20260503174520 | 67 | 202 | 1.0 | 5.0 | 0.00 | 0.00 | 0.00 | 67 | 1014.2 |
| 20260503173017 | 68 | 205 | 3.0 | 5.0 | 0.00 | 0.00 | 0.00 | 67 | 1014.3 |
| 20260503171513 | 67 | 27 | 1.0 | 4.0 | 0.00 | 0.00 | 0.00 | 66 | 1014.4 |
| 20260503081602 | 53 | 204 | 0.0 | 1.0 | 0.00 | 0.00 | 0.00 | 84 | 1014.3 |
| 20260503071553 | 54 | 204 | 0.0 | 0.0 | 0.00 | 0.00 | 0.00 | 82 | 1014.2 |